Hourly Weather Roundup
Issued by NWS Central Illinois

Home | Current Version | Previous Version | Text Only | Print | Product List | Glossary On
Versions: 1 2 3 4 5 6 7 8 9 10 11 12 13 14 15 16 17 18 19 20 21 22 23 24 25 26 27 28 29 30 31 32 33 34 35 36 37 38 39 40 41 42 43 44 45 46 47 48 49 50
000
NZUS43 KILX 312210
HWRILX

AREA WEATHER ROUNDUP
NATIONAL WEATHER SERVICE, LINCOLN IL
500 PM CDT WED AUG 31 2016


CITY           SKY/WX    TMP DP  RH WIND       PRES   REMARKS
BLOOMINGTON    PTSUNNY   78  66  66 N14       30.04S HX  80
CHAMPAIGN      PTSUNNY   79  68  69 N18       30.01S HX  81
DANVILLE       CLOUDY    77  68  73 N14       29.98S
DECATUR        PTSUNNY   81  68  64 N9        30.01S HX  84
EFFINGHAM      LGT RAIN  79  73  83 CALM      30.01S HX  82
FLORA          RAIN      76  73  91 W6        30.00S
GALESBURG      MOSUNNY   77  65  67 N10G16    30.07S
JACKSONVILLE   PTSUNNY   79  68  68 NW8       30.03S HX  82
LACON          MOSUNNY   78  62  58 NE6       30.04S HX  80
LAWRENCEVILLE  CLOUDY    84  71  65 N12       29.96S HX  89
LITCHFIELD     PTSUNNY   76  72  86 W5        30.02S
$$


CITY           SKY/WX    TMP DP  RH WIND       PRES   REMARKS
LINCOLN        PTSUNNY   80  70  69 N9        30.02S HX  84
MACOMB         CLOUDY    77  65  65 N8        30.08S
MATTOON        CLOUDY    81  70  69 N8        29.99S HX  84
MT CARMEL AP   PTSUNNY   83  71  65 NW5       29.97R HX  88
OLNEY-NOBLE AP LGT RAIN  79  75  89 NW5       29.99R HX  82
PARIS          CLOUDY    82  72  72 N5        29.99F HX  86
PEORIA         PTSUNNY   81  66  60 NE8       30.04S HX  83
PONTIAC        MOSUNNY   81  66  61 N10       30.04F HX  83
RANTOUL        CLOUDY    79  68  68 N18       30.01S HX  82
ROBINSON       PTSUNNY   79  72  77 NW6       29.97S HX  82
SPRINGFIELD    CLOUDY    81  68  64 N13       30.02S HX  84
TAYLORVILLE    CLOUDY    81  67  62 N8        30.01S HX  83
$$

...REGIONAL REPORTS...


CITY           SKY/WX    TMP DP  RH WIND       PRES   REMARKS
CHICAGO O`HARE MOSUNNY   74  51  44 NE20      30.08R
KANKAKEE       MOSUNNY   77  62  61 N8G16     30.05S
MOLINE         MOSUNNY   79  58  48 N10       30.07S HX  80
MOUNT STERLING MOSUNNY   78  66  68 N10       30.04S HX  80
MOUNT VERNON   CLOUDY    72  66  83 CALM      30.02R
PITTSFIELD     MOSUNNY   82  67  61 N9        30.05S HX  84
QUINCY         PTSUNNY   82  63  52 N13       30.05S HX  83
ROCKFORD       MOSUNNY   78  56  46 N13       30.09S
$$


CITY           SKY/WX    TMP DP  RH WIND       PRES   REMARKS
BURLINGTON     CLOUDY    79  62  56 N14       30.07S HX  80
CEDAR RAPIDS   SUNNY     78  58  49 N14       30.10F
DES MOINES     PTSUNNY   81  56  42 NE12      30.11F HX  81
KIRKSVILLE     CLOUDY    76  64  66 N14       30.10S
OTTUMWA        MOSUNNY   78  58  49 N13       30.09F
ST LOUIS       CLOUDY    82  73  74 N6        30.03S HX  87
$$


CITY           SKY/WX    TMP DP  RH WIND       PRES   REMARKS
TERRE HAUTE    CLOUDY    81  70  69 N5        29.97S HX  84
EVANSVILLE     SUNNY     88  69  53 VRB5      29.95S HX  92
INDIANAPOLIS   PTSUNNY   82  66  58 N14       29.96S HX  84
LAFAYETTE      CLOUDY    76  66  71 N15G24    29.99R
MADISON        PTSUNNY   77  54  44 N12       30.10S
MILWAUKEE      MOSUNNY   73  56  54 NE12      30.10R
$$





USA.gov is the U.S. government's official web portal to all federal, state and local government web resources and services.